Tracking 34138 objects as of 15-May-2026
HD Live streaming from Space Station
objects crossing your sky now

STARLINK-36984

Track STARLINK-36984 now!
10-day predictions
STARLINK-36984 is classified as:


NORAD ID: 68168
Int'l Code: 2026-050B
Perigee: 445.8 km
Apogee: 447.6 km
Inclination: 53.2 °
Period: 93.4 minutes
Semi major axis: 6817 km
RCS: Unknown
Launch date: March 14, 2026
Source: United States (US)
Launch site: AIR FORCE EASTERN TEST RANGE (AFETR)
Your satellite tracking list
Your tracking list is empty




NASA's NSSDC Master Catalog

Two Line Element Set (TLE):
1 68168U 26050B   26134.49537468  .00028474  00000-0  65993-3 0  9994
2 68168  53.1581 321.4414 0001342  87.5708 272.5451 15.42223933 10751
Source of the keplerian elements: AFSPC